Back to catalog

COSMOS 2251 DEB

AliveLEO
NORAD 33842·DEBRIS·🇷🇺 Russia

Launched Jun 16, 1993 from Plesetsk Cosmodrome

Loading…

Next Passes (next 24 hours)

TLE

FreshSource: Space-Track

Epoch: Sep 14, 2026, 11:15 UTC

1 33842U 93036CK  26257.46903072  .00000603  00000-0  18495-3 0  9993
2 33842  74.0316  67.6092 0046057 108.7335 251.8828 14.43177997923147

Track COSMOS 2251 DEB in real time with AllMySat

Download on the App Store